Regional Weather Roundup
Issued by NWS

Home | Current Version | Previous Version | Graphics & Text | Print | Product List | Glossary On
Versions: 1 2 3 4 5 6 7 8 9 10 11 12 13 14 15 16 17 18 19 20 21 22 23 24 25 26 27 28 29 30 31 32 33 34 35 36 37 38 39 40 41 42 43 44 45 46 47 48 49 50
471
ASUS45 KCYS 221810
RWRWY

WYOMING REGIONAL WEATHER ROUNDUP
NATIONAL WEATHER SERVICE CHEYENNE WY
1100 AM MST MON JAN 22 2018

NOTE:  "FAIR" INDICATES FEW OR NO CLOUDS BELOW 12,000 FEET
WITH NO SIGNIFICANT WEATHER AND/OR OBSTRUCTIONS TO VISIBILITY.

WYZ001-221900-
YELLOWSTONE NATIONAL PARK

CITY           SKY/WX    TMP DP  RH WIND       PRES   REMARKS
LK YELLOWSTONE   N/A      9   6  88 CALM      30.15R
6HR MIN TEMP:   5; 6HR MAX TEMP:  10; 6HR PCP:  0.02;

W YELLOWSTONE  NOT AVBL

$$
WYZ002>013-054>058-071-098>099-221900-
NORTHERN WYOMING

CITY           SKY/WX    TMP DP  RH WIND       PRES   REMARKS
JACKSON        LGT SNOW   7   1  78 CALM      30.23S VSB 3/4
CODY           FAIR      30  13  49 W13       30.08R WCI  20
GREYBULL       FAIR      13   9  84 SE6       30.15S WCI   4
6HR MIN TEMP:   0; 6HR MAX TEMP:  13;

WORLAND        FAIR      13   9  84 S8        30.14S WCI   2
6HR MIN TEMP:  -6; 6HR MAX TEMP:  13;

SHERIDAN       FAIR      26  11  52 CALM      30.04S
6HR MIN TEMP:   5; 6HR MAX TEMP:  26;

BUFFALO        FAIR      33  12  41 SW5       30.03R WCI  29
6HR MIN TEMP:  19; 6HR MAX TEMP:  33;

GILLETTE       FAIR      27  16  63 W16       30.02R WCI  15
6HR MIN TEMP:  17; 6HR MAX TEMP:  28;

HULETT         FAIR      32  18  55 SW7       30.01S WCI  26
NEWCASTLE      FAIR      27  18  69 NW6       30.02S WCI  20

$$
WYZ014>020-022>026-101>103-221900-
CENTRAL WYOMING

CITY           SKY/WX    TMP DP  RH WIND       PRES   REMARKS
BIG PINEY      CLOUDY    14   5  67 CALM      30.18R
6HR MIN TEMP:  -6; 6HR MAX TEMP:  14;

PINEDALE       CLOUDY    18  10  73 NW6       30.17R WCI   9
DUBOIS         MOCLDY    23  10  58 NW20G26   30.06S WCI   8
LANDER         FAIR      13   5  70 N3        30.08R
6HR MIN TEMP:   0; 6HR MAX TEMP:  13;

RIVERTON       FAIR       6   1  80 E5        30.10R WCI  -3
6HR MIN TEMP:  -5; 6HR MAX TEMP:   8;

CASPER         FAIR      17  10  74 SW26G33   30.09R WCI  -2
6HR MIN TEMP:  11; 6HR MAX TEMP:  18;

DOUGLAS        FAIR      23  12  62 W13       30.04S WCI  11
6HR MIN TEMP:   4; 6HR MAX TEMP:  23;


$$
WYZ021-027>030-104>119-221900-
SOUTHERN WYOMING

CITY           SKY/WX    TMP DP  RH WIND       PRES   REMARKS
EVANSTON       CLOUDY    15  12  88 SW12      30.20R WCI   2
6HR MIN TEMP:   5; 6HR MAX TEMP:  15; 6HR PCP: TRACE;

FORT BRIDGER   CLOUDY    19  12  73 W12       30.22R WCI   7
ROCK SPRINGS   FAIR      16   9  74 W8        30.20R WCI   5
6HR MIN TEMP:   6; 6HR MAX TEMP:  16;

DIXON            N/A     17   8  67 CALM      30.28R
RAWLINS        FAIR      19  10  68 SW15      30.17R WCI   5
6HR MIN TEMP:  11; 6HR MAX TEMP:  19;

SARATOGA       FAIR      18   7  62 S14       30.18R WCI   4
LARAMIE        FAIR      15   6  67 NE5       30.05R WCI   8
6HR MIN TEMP:  -5; 6HR MAX TEMP:  15;

CHEYENNE       FAIR      26  10  50 W28G35    29.99R WCI  10
6HR MIN TEMP:  16; 6HR MAX TEMP:  26;

TORRINGTON     FAIR      20   9  62 NW9       30.02F WCI   9
6HR MIN TEMP:  11; 6HR MAX TEMP:  20;


$$




USA.gov is the U.S. government's official web portal to all federal, state and local government web resources and services.